Date String (YYYY-MM-DD hh:mm:ss) UTC,Instrument flags,Ambient pressure (hPa),Sample flow (lpm),Bypass flow (lpm),Sample temperature (°C),Ambient temperature (°C),ASC tube jacket temperature (°C),LED temperature (°C),Box temperature (°C),Sample RH (%),Span deviation,Mass concentration (μg/m³),Mass concentration (μg/m³),Mass concentration (μg/m³)
DateTimeUTC,F1_M11,P_M11,Q1_M11,Q2_M11,T1_M11,T2_M11,T3_M11,T4_M11,T5_M11,U1_M11,ZSPAN_M11,X0_M11,X2_M11,X1_M11
2022-02-01 18:00:00,,0823.1,5.00,0.00,21.1,20.6,00.0,30.3,22.5,07.5,0000.0,0005.27,0001.58,0000.47
2022-02-01 18:01:00,,0823.1,5.01,0.00,21.1,20.6,00.0,30.3,22.4,07.7,0000.0,0005.35,0001.53,0000.45
2022-02-01 18:02:00,,0823.1,5.00,0.00,21.1,21.3,00.0,30.3,22.7,07.5,0000.0,0005.25,0001.47,0000.44
2022-02-01 18:03:00,,0823.1,5.00,0.00,21.3,22.3,00.0,30.4,23.1,07.8,0000.0,0005.16,0001.48,0000.44
2022-02-01 18:04:00,,0823.2,5.00,0.00,21.5,23.0,00.0,30.4,23.4,07.7,0000.0,0004.95,0001.48,0000.44
2022-02-01 18:05:00,,0823.2,5.00,0.00,21.6,22.6,00.0,30.5,23.4,08.1,0000.0,0005.27,0001.56,0000.45
2022-02-01 18:06:00,,0823.2,5.00,0.00,21.6,22.2,00.0,30.5,23.2,07.7,0000.0,0005.21,0001.52,0000.45
2022-02-01 18:07:00,,0823.1,4.99,0.00,21.5,21.8,00.0,30.5,23.1,07.9,0000.0,0005.47,0001.45,0000.46
2022-02-01 18:08:00,,0823.1,5.01,0.00,21.4,21.5,00.0,30.5,22.9,08.6,0000.0,0005.83,0001.52,0000.49
2022-02-01 18:09:00,,0823.1,5.00,0.00,21.4,21.2,00.0,30.5,22.8,08.6,0000.0,0007.75,0001.64,0000.51
2022-02-01 18:10:00,,0823.1,5.00,0.00,21.3,21.0,00.0,30.4,22.8,08.7,0000.0,0007.75,0001.74,0000.54
2022-02-01 18:11:00,,0823.1,5.00,0.00,21.3,20.8,00.0,30.4,22.7,08.9,0000.0,0008.10,0001.92,0000.58
2022-02-01 18:12:00,,0823.1,5.00,0.00,21.2,20.7,00.0,30.4,22.7,08.9,0000.0,0008.18,0002.06,0000.63
2022-02-01 18:13:00,,0823.0,5.00,0.00,21.2,20.8,00.0,30.4,22.7,08.9,0000.0,0008.49,0002.19,0000.65
2022-02-01 18:14:00,,0822.9,5.00,0.00,21.3,21.7,00.0,30.4,23.0,09.0,0000.0,0008.88,0002.25,0000.68
2022-02-01 18:15:00,,0822.9,5.00,0.00,21.5,22.7,00.0,30.5,23.4,08.8,0000.0,0008.97,0002.31,0000.70
2022-02-01 18:16:00,,0822.9,5.01,0.00,21.7,23.0,00.0,30.5,23.6,08.7,0000.0,0008.99,0002.27,0000.72
2022-02-01 18:17:00,,0823.0,5.01,0.00,21.7,22.6,00.0,30.5,23.5,08.4,0000.0,0009.18,0002.30,0000.75
2022-02-01 18:18:00,,0823.0,4.98,0.00,21.7,22.3,00.0,30.6,23.4,08.2,0000.0,0009.59,0002.38,0000.77
2022-02-01 18:19:00,,0822.9,5.01,0.00,21.7,21.9,00.0,30.6,23.3,08.4,0000.0,0010.00,0002.37,0000.76
2022-02-01 18:20:00,,0823.0,5.00,0.00,21.6,21.7,00.0,30.6,23.2,08.6,0000.0,0008.97,0002.36,0000.76
2022-02-01 18:21:00,,0823.0,5.00,0.00,21.6,21.5,00.0,30.6,23.1,08.4,0000.0,0009.20,0002.31,0000.76
2022-02-01 18:22:00,,0823.0,4.99,0.00,21.6,21.3,00.0,30.6,23.1,08.4,0000.0,0009.24,0002.30,0000.75
2022-02-01 18:23:00,,0822.8,5.01,0.00,21.5,21.1,00.0,30.6,23.0,08.5,0000.0,0009.36,0002.34,0000.75
2022-02-01 18:24:00,,0822.8,4.99,0.00,21.5,21.0,00.0,30.5,23.0,08.7,0000.0,0009.04,0002.25,0000.75
2022-02-01 18:25:00,,0822.8,4.99,0.00,21.4,20.9,00.0,30.5,22.9,08.4,0000.0,0008.46,0002.16,0000.75
2022-02-01 18:26:00,,0822.7,5.00,0.00,21.4,20.9,00.0,30.5,22.9,08.4,0000.0,0008.43,0002.16,0000.75
2022-02-01 18:27:00,,0822.8,5.00,0.00,21.5,21.5,00.0,30.5,23.1,08.6,0000.0,0008.88,0002.21,0000.75
2022-02-01 18:28:00,,0822.7,5.00,0.00,21.6,22.5,00.0,30.6,23.5,08.6,0000.0,0008.85,0002.26,0000.76
2022-02-01 18:29:00,,0822.7,5.02,0.00,21.8,23.2,00.0,30.6,23.8,08.5,0000.0,0009.13,0002.30,0000.76
2022-02-01 18:30:00,,0822.7,4.99,0.00,21.9,23.0,00.0,30.7,23.9,08.3,0000.0,0008.87,0002.27,0000.77
2022-02-01 18:31:00,,0822.6,4.99,0.00,21.9,22.6,00.0,30.7,23.8,08.3,0000.0,0009.51,0002.17,0000.76
2022-02-01 18:32:00,,0822.6,4.99,0.00,21.9,22.3,00.0,30.7,23.6,08.5,0000.0,0010.12,0002.22,0000.77
2022-02-01 18:33:00,,0822.6,5.01,0.00,21.9,22.0,00.0,30.7,23.5,08.3,0000.0,0009.86,0002.17,0000.78
2022-02-01 18:34:00,,0822.6,5.01,0.00,21.9,21.8,00.0,30.8,23.5,08.4,0000.0,0009.75,0002.06,0000.78
2022-02-01 18:35:00,,0822.6,4.99,0.00,21.8,21.6,00.0,30.8,23.4,08.5,0000.0,0010.11,0002.03,0000.78
2022-02-01 18:36:00,,0822.6,5.00,0.00,21.8,21.4,00.0,30.8,23.4,08.7,0000.0,0010.22,0002.10,0000.80
2022-02-01 18:37:00,,0822.6,5.02,0.00,21.8,21.4,00.0,30.7,23.4,08.7,0000.0,0010.25,0002.16,0000.81
2022-02-01 18:38:00,,0822.6,4.99,0.00,21.7,21.3,00.0,30.7,23.3,08.3,0000.0,0009.74,0002.07,0000.80
2022-02-01 18:39:00,,0822.5,5.00,0.00,21.7,21.2,00.0,30.7,23.3,08.4,0000.0,0009.51,0001.98,0000.79
2022-02-01 18:40:00,,0822.5,5.01,0.00,21.7,21.1,00.0,30.7,23.2,08.5,0000.0,0008.68,0001.96,0000.80
2022-02-01 18:41:00,,0822.5,5.00,0.00,21.6,21.0,00.0,30.7,23.1,08.4,0000.0,0009.58,0002.01,0000.80
2022-02-01 18:42:00,,0822.5,5.00,0.00,21.6,21.0,00.0,30.7,23.1,08.3,0000.0,0009.24,0002.09,0000.81
2022-02-01 18:43:00,,0822.5,5.01,0.00,21.7,21.6,00.0,30.7,23.3,08.4,0000.0,0008.98,0002.12,0000.80
2022-02-01 18:44:00,,0822.5,4.99,0.00,21.8,22.6,00.0,30.8,23.7,08.3,0000.0,0009.31,0002.19,0000.80
2022-02-01 18:45:00,,0822.5,4.99,0.00,22.0,22.8,00.0,30.8,23.9,08.2,0000.0,0009.11,0002.13,0000.79
2022-02-01 18:46:00,,0822.4,5.01,0.00,22.0,22.6,00.0,30.8,23.9,08.3,0000.0,0008.74,0002.14,0000.78
2022-02-01 18:47:00,,0822.4,5.00,0.00,22.0,22.3,00.0,30.8,23.8,08.4,0000.0,0008.84,0002.15,0000.78
2022-02-01 18:48:00,,0822.4,4.99,0.00,22.0,22.1,00.0,30.9,23.7,08.3,0000.0,0008.73,0002.05,0000.77
2022-02-01 18:49:00,,0822.4,5.00,0.00,22.0,21.9,00.0,30.9,23.7,08.1,0000.0,0008.61,0002.06,0000.77
2022-02-01 18:50:00,,0822.4,5.02,0.00,22.0,21.7,00.0,30.9,23.6,08.0,0000.0,0008.69,0002.09,0000.78
2022-02-01 18:51:00,,0822.4,5.00,0.00,21.9,21.6,00.0,30.9,23.5,08.1,0000.0,0008.73,0002.07,0000.79
2022-02-01 18:52:00,,0822.4,4.99,0.00,21.9,21.5,00.0,30.9,23.5,08.1,0000.0,0007.69,0002.12,0000.79
2022-02-01 18:53:00,,0822.3,5.02,0.00,21.9,21.4,00.0,30.9,23.5,08.2,0000.0,0007.34,0002.10,0000.79
2022-02-01 18:54:00,,0822.4,4.99,0.00,21.9,21.4,00.0,30.9,23.5,08.0,0000.0,0006.54,0002.02,0000.80
2022-02-01 18:55:00,,0822.3,4.99,0.00,21.9,21.3,00.0,30.9,23.4,08.0,0000.0,0006.65,0001.94,0000.81
2022-02-01 18:56:00,,0822.3,5.01,0.00,21.8,21.3,00.0,30.8,23.4,08.3,0000.0,0006.61,0001.93,0000.81
2022-02-01 18:57:00,,0822.3,4.99,0.00,21.8,21.3,00.0,30.8,23.4,08.2,0000.0,0006.48,0001.92,0000.80
2022-02-01 18:58:00,,0822.3,5.00,0.00,21.8,21.2,00.0,30.8,23.4,08.3,0000.0,0006.28,0001.83,0000.79
2022-02-01 18:59:00,,0822.3,5.00,0.00,21.8,21.2,00.0,30.8,23.3,08.2,0000.0,0006.81,0001.81,0000.79
